Weather History for Columbus, OH

Change the Weather History Date:

Friday, March 14, 2014

  Actual Average Record
Temperature  
Mean Temperature 48 °F 41 °F  
Max Temperature 63 °F 50 °F 78 °F (1990)
Min Temperature 32 °F 32 °F 8 °F (1993)
Degree Days  
Heating Degree Days 17 24  
Month to date heating degree days 414 366  
Since 1 July heating degree days 4798 4361  
Cooling Degree Days 0 0  
Month to date cooling degree days 0 0  
Year to date cooling degree days 0 0  
Moisture  
Dew Point 25 °F    
Average Humidity 42    
Maximum Humidity 56    
Minimum Humidity 27    
Precipitation  
Precipitation 0.02 in 0.09 in 1.37 in (1922)
Month to date precipitation 0.95 1.22  
Year to date precipitation 5.74 6.20  
Snow  
Snow 0.00 in 0.10 in 2.50 in (1940)
Month to date snowfall 2.9 2.4  
Since 1 July snowfall 53.9 23.8  
Snow Depth 0.00 in    
Sea Level Pressure  
Sea Level Pressure 29.91 in    
Wind  
Wind Speed 16 mph (SSW)    
Max Wind Speed 36 mph    
Max Gust Speed 46 mph    
Visibility 10 miles    
Events Rain    
T = Trace of Precipitation, MM = Missing Value Source: NWS Daily Summary

Daily Weather History Graph

Daily Weather History Graph

Search for Another Location

Airport:

Trip Planner

Search our weather history database for the weather conditions in past years. The results will help you decide how hot, cold, wet, or windy it might be!

Date:

Astronomy

Mar. 14, 2014 Rise Set
Actual Time 7:44 AM EDT 7:37 PM EDT
Civil Twilight 7:17 AM EDT 8:04 PM EDT
Nautical Twilight 6:46 AM EDT 8:35 PM EDT
Astronomical Twilight 6:14 AM EDT 9:07 PM EDT
Moon 5:58 PM EDT (3/14) 6:23 AM EDT (3/14)
Length of Visible Light 12h 46m
Length of Day
11h 52m
Waxing Gibbous, 96% of the Moon is Illuminated
Mar 14
Waxing Gibbous
Mar 16
Full
Mar 23
Last Quarter
Mar 30
New
Apr 7
First Quarter

Hourly Weather History & Observations

Time (EDT) Temp. Windchill Dew Point Humidity Pressure Visibility Wind Dir Wind Speed Gust Speed Precip Events Conditions
12:51 AM 34.0 °F 26.6 °F 15.1 °F 46% 30.09 in 10.0 mi South 9.2 mph - N/A   Mostly Cloudy
1:51 AM 32.0 °F 25.6 °F 16.0 °F 52% 30.08 in 10.0 mi South 6.9 mph - N/A   Partly Cloudy
2:51 AM 33.1 °F 25.5 °F 16.0 °F 50% 30.07 in 10.0 mi South 9.2 mph - N/A   Clear
3:51 AM 32.0 °F 25.6 °F 17.1 °F 54% 30.06 in 10.0 mi South 6.9 mph - N/A   Clear
4:51 AM 33.1 °F 26.9 °F 17.1 °F 52% 30.04 in 10.0 mi South 6.9 mph - N/A   Clear
5:51 AM 33.1 °F 26.1 °F 18.0 °F 54% 30.03 in 10.0 mi South 8.1 mph - N/A   Clear
6:51 AM 33.1 °F 27.7 °F 18.0 °F 54% 30.02 in 10.0 mi SSE 5.8 mph - N/A   Clear
7:51 AM 34.0 °F 28.0 °F 19.0 °F 54% 30.00 in 10.0 mi South 6.9 mph - N/A   Partly Cloudy
8:51 AM 37.9 °F 30.5 °F 19.9 °F 48% 30.01 in 10.0 mi South 11.5 mph - N/A   Partly Cloudy
9:51 AM 41.0 °F 33.5 °F 23.0 °F 49% 30.00 in 10.0 mi SSW 13.8 mph 20.7 mph N/A   Partly Cloudy
10:51 AM 46.0 °F 38.5 °F 26.1 °F 46% 29.97 in 10.0 mi SSW 19.6 mph 28.8 mph N/A   Scattered Clouds
11:51 AM 51.1 °F - 28.0 °F 41% 29.94 in 10.0 mi SW 19.6 mph 29.9 mph N/A   Mostly Cloudy
12:51 PM 54.0 °F - 30.0 °F 40% 29.91 in 10.0 mi SW 17.3 mph 27.6 mph N/A   Mostly Cloudy
1:51 PM 59.0 °F - 30.9 °F 35% 29.87 in 10.0 mi SSW 21.9 mph 31.1 mph N/A   Mostly Cloudy
2:51 PM 60.1 °F - 30.0 °F 32% 29.82 in 10.0 mi SSW 25.3 mph 40.3 mph N/A   Mostly Cloudy
3:51 PM 61.0 °F - 28.9 °F 30% 29.79 in 10.0 mi SSW 26.5 mph 40.3 mph N/A   Mostly Cloudy
4:51 PM 63.0 °F - 28.9 °F 28% 29.77 in 10.0 mi SSW 27.6 mph 40.3 mph N/A   Scattered Clouds
5:51 PM 62.1 °F - 28.0 °F 28% 29.74 in 10.0 mi SSW 26.5 mph 41.4 mph N/A   Overcast
6:51 PM 59.0 °F - 28.0 °F 31% 29.76 in 10.0 mi SSW 21.9 mph 39.1 mph N/A   Overcast
7:51 PM 57.9 °F - 28.9 °F 33% 29.78 in 10.0 mi SSW 17.3 mph 23.0 mph N/A   Overcast
8:51 PM 57.0 °F - 28.9 °F 34% 29.78 in 10.0 mi SSW 13.8 mph 23.0 mph N/A   Overcast
9:51 PM 55.9 °F - 30.0 °F 37% 29.79 in 10.0 mi SSW 16.1 mph 23.0 mph N/A   Overcast
10:51 PM 55.0 °F - 32.0 °F 42% 29.78 in 10.0 mi SW 13.8 mph 21.9 mph N/A   Overcast
11:51 PM 50.0 °F - 41.0 °F 71% 29.83 in 10.0 mi WNW 24.2 mph 32.2 mph 0.00 in Rain Light Rain
11:58 PM 48.2 °F - 41.0 °F 76% 29.83 in 7.0 mi WNW 21.9 mph - 0.00 in Rain Rain